Year,Month,Day,Hour,Minute,Value (Times are PST for temperature in C)
2016,02,24,00,00,3.20
2016,02,24,00,01,3.20
2016,02,24,00,02,3.20
2016,02,24,00,03,3.20
2016,02,24,00,04,3.20
2016,02,24,00,05,3.20
2016,02,24,00,06,3.20
2016,02,24,00,07,3.20
2016,02,24,00,08,3.20
2016,02,24,00,09,3.20
2016,02,24,00,10,3.20
2016,02,24,00,11,3.20
2016,02,24,00,12,3.20
2016,02,24,00,13,3.20
2016,02,24,00,14,3.20
2016,02,24,00,15,3.20
2016,02,24,00,16,3.20
2016,02,24,00,17,3.20
2016,02,24,00,18,3.20
2016,02,24,00,19,3.20
2016,02,24,00,20,3.20
2016,02,24,00,21,3.20
2016,02,24,00,22,3.20
2016,02,24,00,23,3.20
2016,02,24,00,24,3.20
2016,02,24,00,25,3.20
2016,02,24,00,26,3.20
2016,02,24,00,27,3.20
2016,02,24,00,28,3.20
2016,02,24,00,29,3.20
2016,02,24,00,30,3.20
2016,02,24,00,31,3.20
2016,02,24,00,32,3.10
2016,02,24,00,33,3.10
2016,02,24,00,34,3.10
2016,02,24,00,35,3.10
2016,02,24,00,36,3.00
2016,02,24,00,37,3.00
2016,02,24,00,38,3.00
2016,02,24,00,39,3.00
2016,02,24,00,40,3.00
2016,02,24,00,41,3.00
2016,02,24,00,42,3.00
2016,02,24,00,43,3.00
2016,02,24,00,44,3.00
2016,02,24,00,45,3.00
2016,02,24,00,46,3.00
2016,02,24,00,47,3.00
2016,02,24,00,48,3.00
2016,02,24,00,49,3.00
2016,02,24,00,50,3.00
2016,02,24,00,51,3.00
2016,02,24,00,52,3.00
2016,02,24,00,53,3.00
2016,02,24,00,54,3.00
2016,02,24,00,55,3.00
2016,02,24,00,56,3.00
2016,02,24,00,57,3.00
2016,02,24,00,58,3.00
2016,02,24,00,59,3.00
2016,02,24,01,00,3.00
2016,02,24,01,01,3.00
2016,02,24,01,02,3.00
2016,02,24,01,03,3.00
2016,02,24,01,04,3.00
2016,02,24,01,05,3.00
2016,02,24,01,06,3.00
2016,02,24,01,07,3.00
2016,02,24,01,08,3.10
2016,02,24,01,09,3.10
2016,02,24,01,10,3.10
2016,02,24,01,11,3.10
2016,02,24,01,12,3.10
2016,02,24,01,13,3.10
2016,02,24,01,14,3.10
2016,02,24,01,15,3.10
2016,02,24,01,16,3.10
2016,02,24,01,17,3.10
2016,02,24,01,18,3.10
2016,02,24,01,19,3.10
2016,02,24,01,20,3.10
2016,02,24,01,21,3.10
2016,02,24,01,22,3.10
2016,02,24,01,23,3.10
2016,02,24,01,24,3.10
2016,02,24,01,25,3.10
2016,02,24,01,26,3.10
2016,02,24,01,27,3.10
2016,02,24,01,28,3.10
2016,02,24,01,29,3.10
2016,02,24,01,30,3.10
2016,02,24,01,31,3.10
2016,02,24,01,32,3.10
2016,02,24,01,33,3.10
2016,02,24,01,34,3.10
2016,02,24,01,35,3.10
2016,02,24,01,36,3.10
2016,02,24,01,37,3.00
2016,02,24,01,38,3.00
2016,02,24,01,39,3.00
2016,02,24,01,40,3.00
2016,02,24,01,41,3.00
2016,02,24,01,42,3.00
2016,02,24,01,43,3.00
2016,02,24,01,44,3.00
2016,02,24,01,45,3.00
2016,02,24,01,46,2.90
2016,02,24,01,47,2.90
2016,02,24,01,48,2.90
2016,02,24,01,49,2.90
2016,02,24,01,50,2.90
2016,02,24,01,51,2.90
2016,02,24,01,52,2.90
2016,02,24,01,53,2.90
2016,02,24,01,54,2.90
2016,02,24,01,55,2.90
2016,02,24,01,56,2.90
2016,02,24,01,57,2.90
2016,02,24,01,58,2.90
2016,02,24,01,59,2.90
2016,02,24,02,00,2.90
2016,02,24,02,01,2.90
2016,02,24,02,02,2.90
2016,02,24,02,03,2.90
2016,02,24,02,04,3.00
2016,02,24,02,05,3.00
2016,02,24,02,06,3.00
2016,02,24,02,07,3.00
2016,02,24,02,08,3.00
2016,02,24,02,09,3.00
2016,02,24,02,10,3.00
2016,02,24,02,11,3.00
2016,02,24,02,12,3.00
2016,02,24,02,13,3.00
2016,02,24,02,14,3.00
2016,02,24,02,15,2.90
2016,02,24,02,16,2.90
2016,02,24,02,17,2.90
2016,02,24,02,18,2.90
2016,02,24,02,19,2.90
2016,02,24,02,20,2.90
2016,02,24,02,21,2.90
2016,02,24,02,22,2.90
2016,02,24,02,23,2.90
2016,02,24,02,24,2.90
2016,02,24,02,25,2.90
2016,02,24,02,26,2.90
2016,02,24,02,27,2.90
2016,02,24,02,28,2.90
2016,02,24,02,29,2.80
2016,02,24,02,30,2.80
2016,02,24,02,31,2.80
2016,02,24,02,32,2.80
2016,02,24,02,33,2.90
2016,02,24,02,34,2.90
2016,02,24,02,35,2.90
2016,02,24,02,36,2.90
2016,02,24,02,37,2.90
2016,02,24,02,38,2.90
2016,02,24,02,39,2.90
2016,02,24,02,40,2.90
2016,02,24,02,41,2.90
2016,02,24,02,42,2.90
2016,02,24,02,43,2.90
2016,02,24,02,44,2.90
2016,02,24,02,45,2.90
2016,02,24,02,46,2.90
2016,02,24,02,47,2.90
2016,02,24,02,48,2.90
2016,02,24,02,49,2.90
2016,02,24,02,50,2.90
2016,02,24,02,51,2.90
2016,02,24,02,52,2.90
2016,02,24,02,53,2.90
2016,02,24,02,54,2.90
2016,02,24,02,55,2.80
2016,02,24,02,56,2.80
2016,02,24,02,57,2.80
2016,02,24,02,58,2.80
2016,02,24,02,59,2.80
2016,02,24,03,00,2.80
2016,02,24,03,01,2.80
2016,02,24,03,02,2.80
2016,02,24,03,03,2.80
2016,02,24,03,04,2.80
2016,02,24,03,05,2.80
2016,02,24,03,06,2.80
2016,02,24,03,07,2.80
2016,02,24,03,08,2.90
2016,02,24,03,09,2.90
2016,02,24,03,10,2.90
2016,02,24,03,11,2.90
2016,02,24,03,12,2.90
2016,02,24,03,13,2.90
2016,02,24,03,14,2.90
2016,02,24,03,15,2.90
2016,02,24,03,16,2.80
2016,02,24,03,17,2.80
2016,02,24,03,18,2.80
2016,02,24,03,19,2.80
2016,02,24,03,20,2.70
2016,02,24,03,21,2.70
2016,02,24,03,22,2.70
2016,02,24,03,23,2.70
2016,02,24,03,24,2.70
2016,02,24,03,25,2.60
2016,02,24,03,26,2.60
2016,02,24,03,27,2.70
2016,02,24,03,28,2.60
2016,02,24,03,29,2.60
2016,02,24,03,30,2.60
2016,02,24,03,31,2.60
2016,02,24,03,32,2.60
2016,02,24,03,33,2.60
2016,02,24,03,34,2.60
2016,02,24,03,35,2.60
2016,02,24,03,36,2.60
2016,02,24,03,37,2.60
2016,02,24,03,38,2.50
2016,02,24,03,39,2.50
2016,02,24,03,40,2.50
2016,02,24,03,41,2.50
2016,02,24,03,42,2.50
2016,02,24,03,43,2.50
2016,02,24,03,44,2.50
2016,02,24,03,45,2.50
2016,02,24,03,46,2.50
2016,02,24,03,47,2.40
2016,02,24,03,48,2.30
2016,02,24,03,49,2.20
2016,02,24,03,50,2.20
2016,02,24,03,51,2.10
2016,02,24,03,52,2.10
2016,02,24,03,53,2.00
2016,02,24,03,54,2.00
2016,02,24,03,55,2.00
2016,02,24,03,56,2.00
2016,02,24,03,57,2.00
2016,02,24,03,58,2.00
2016,02,24,03,59,2.00
2016,02,24,04,00,2.00
2016,02,24,04,01,2.10
2016,02,24,04,02,2.10
2016,02,24,04,03,2.10
2016,02,24,04,04,2.10
2016,02,24,04,05,2.10
2016,02,24,04,06,2.10
2016,02,24,04,07,2.10
2016,02,24,04,08,2.10
2016,02,24,04,09,2.10
2016,02,24,04,10,2.10
2016,02,24,04,11,2.20
2016,02,24,04,12,2.20
2016,02,24,04,13,2.20
2016,02,24,04,14,2.20
2016,02,24,04,15,2.20
2016,02,24,04,16,2.20
2016,02,24,04,17,2.20
2016,02,24,04,18,2.20
2016,02,24,04,19,2.20
2016,02,24,04,20,2.20
2016,02,24,04,21,2.30
2016,02,24,04,22,2.30
2016,02,24,04,23,2.30
2016,02,24,04,24,2.30
2016,02,24,04,25,2.30
2016,02,24,04,26,2.30
2016,02,24,04,27,2.30
2016,02,24,04,28,2.30
2016,02,24,04,29,2.30
2016,02,24,04,30,2.30
2016,02,24,04,31,2.30
2016,02,24,04,32,2.30
2016,02,24,04,33,2.30
2016,02,24,04,34,2.30
2016,02,24,04,35,2.20
2016,02,24,04,36,2.20
2016,02,24,04,37,2.20
2016,02,24,04,38,2.20
2016,02,24,04,39,2.20
2016,02,24,04,40,2.20
2016,02,24,04,41,2.20
2016,02,24,04,42,2.20
2016,02,24,04,43,2.20
2016,02,24,04,44,2.20
2016,02,24,04,45,2.20
2016,02,24,04,46,2.20
2016,02,24,04,47,2.20
2016,02,24,04,48,2.20
2016,02,24,04,49,2.10
2016,02,24,04,50,2.10
2016,02,24,04,51,2.10
2016,02,24,04,52,2.10
2016,02,24,04,53,2.00
2016,02,24,04,54,2.00
2016,02,24,04,55,2.00
2016,02,24,04,56,1.90
2016,02,24,04,57,1.80
2016,02,24,04,58,1.70
2016,02,24,04,59,1.60
2016,02,24,05,00,1.50
2016,02,24,05,01,1.50
2016,02,24,05,02,1.50
2016,02,24,05,03,1.40
2016,02,24,05,04,1.40
2016,02,24,05,05,1.40
2016,02,24,05,06,1.40
2016,02,24,05,07,1.40
2016,02,24,05,08,1.40
2016,02,24,05,09,1.40
2016,02,24,05,10,1.40
2016,02,24,05,11,1.30
2016,02,24,05,12,1.30
2016,02,24,05,13,1.30
2016,02,24,05,14,1.20
2016,02,24,05,15,1.20
2016,02,24,05,16,1.20
2016,02,24,05,17,1.30
2016,02,24,05,18,1.30
2016,02,24,05,19,1.30
2016,02,24,05,20,1.30
2016,02,24,05,21,1.30
2016,02,24,05,22,1.30
2016,02,24,05,23,1.30
2016,02,24,05,24,1.30
2016,02,24,05,25,1.30
2016,02,24,05,26,1.30
2016,02,24,05,27,1.30
2016,02,24,05,28,1.30
2016,02,24,05,29,1.30
2016,02,24,05,30,1.30
2016,02,24,05,31,1.30
2016,02,24,05,32,1.30
2016,02,24,05,33,1.30
2016,02,24,05,34,1.30
2016,02,24,05,35,1.30
2016,02,24,05,36,1.30
2016,02,24,05,37,1.30
2016,02,24,05,38,1.20
2016,02,24,05,39,1.20
2016,02,24,05,40,1.20
2016,02,24,05,41,1.20
2016,02,24,05,42,1.20
2016,02,24,05,43,1.20
2016,02,24,05,44,1.20
2016,02,24,05,45,1.20
2016,02,24,05,46,1.20
2016,02,24,05,47,1.20
2016,02,24,05,48,1.20
2016,02,24,05,49,1.10
2016,02,24,05,50,1.10
2016,02,24,05,51,1.00
2016,02,24,05,52,0.90
2016,02,24,05,53,0.90
2016,02,24,05,54,0.80
2016,02,24,05,55,0.80
2016,02,24,05,56,0.80
2016,02,24,05,57,0.80
2016,02,24,05,58,0.80
2016,02,24,05,59,0.90
2016,02,24,06,00,0.90
2016,02,24,06,01,0.90
2016,02,24,06,02,0.90
2016,02,24,06,03,0.90
2016,02,24,06,04,0.90
2016,02,24,06,05,0.90
2016,02,24,06,06,0.90
2016,02,24,06,07,0.90
2016,02,24,06,08,0.90
2016,02,24,06,09,0.90
2016,02,24,06,10,0.90
2016,02,24,06,11,0.90
2016,02,24,06,12,1.00
2016,02,24,06,13,1.00
2016,02,24,06,14,1.00
2016,02,24,06,15,1.00
2016,02,24,06,16,1.00
2016,02,24,06,17,1.00
2016,02,24,06,18,1.00
2016,02,24,06,19,1.00
2016,02,24,06,20,1.00
2016,02,24,06,21,1.00
2016,02,24,06,22,1.10
2016,02,24,06,23,1.10
2016,02,24,06,24,1.10
2016,02,24,06,25,1.10
2016,02,24,06,26,1.10
2016,02,24,06,27,1.10
2016,02,24,06,28,1.10
2016,02,24,06,29,1.10
2016,02,24,06,30,1.10
2016,02,24,06,31,1.10
2016,02,24,06,32,1.10
2016,02,24,06,33,1.10
2016,02,24,06,34,1.00
2016,02,24,06,35,1.00
2016,02,24,06,36,0.90
2016,02,24,06,37,0.90
2016,02,24,06,38,0.80
2016,02,24,06,39,0.80
2016,02,24,06,40,0.80
2016,02,24,06,41,0.80
2016,02,24,06,42,0.80
2016,02,24,06,43,0.80
2016,02,24,06,44,0.80
2016,02,24,06,45,0.80
2016,02,24,06,46,0.80
2016,02,24,06,47,0.80
2016,02,24,06,48,0.80
2016,02,24,06,49,0.80
2016,02,24,06,50,0.80
2016,02,24,06,51,0.80
2016,02,24,06,52,0.80
2016,02,24,06,53,0.70
2016,02,24,06,54,0.70
2016,02,24,06,55,0.70
2016,02,24,06,56,0.70
2016,02,24,06,57,0.70
2016,02,24,06,58,0.70
2016,02,24,06,59,0.70
2016,02,24,07,00,0.70
2016,02,24,07,01,0.70
2016,02,24,07,02,0.70
2016,02,24,07,03,0.70
2016,02,24,07,04,0.70
2016,02,24,07,05,0.80
2016,02,24,07,06,0.80
2016,02,24,07,07,0.80
2016,02,24,07,08,0.70
2016,02,24,07,09,0.70
2016,02,24,07,10,0.70
2016,02,24,07,11,0.70
2016,02,24,07,12,0.60
2016,02,24,07,13,0.60
2016,02,24,07,14,0.50
2016,02,24,07,15,0.50
2016,02,24,07,16,0.50
2016,02,24,07,17,0.50
2016,02,24,07,18,0.50
2016,02,24,07,19,0.50
2016,02,24,07,20,0.50
2016,02,24,07,21,0.50
2016,02,24,07,22,0.50
2016,02,24,07,23,0.50
2016,02,24,07,24,0.50
2016,02,24,07,25,0.50
2016,02,24,07,26,0.50
2016,02,24,07,27,0.50
2016,02,24,07,28,0.60
2016,02,24,07,29,0.60
2016,02,24,07,30,0.60
2016,02,24,07,31,0.60
2016,02,24,07,32,0.60
2016,02,24,07,33,0.60
2016,02,24,07,34,0.60
2016,02,24,07,35,0.70
2016,02,24,07,36,0.70
2016,02,24,07,37,0.70
2016,02,24,07,38,0.70
2016,02,24,07,39,0.60
2016,02,24,07,40,0.60
2016,02,24,07,41,0.60
2016,02,24,07,42,0.60
2016,02,24,07,43,0.60
2016,02,24,07,44,0.60
2016,02,24,07,45,0.60
2016,02,24,07,46,0.60
2016,02,24,07,47,0.70
2016,02,24,07,48,0.60
2016,02,24,07,49,0.70
2016,02,24,07,50,0.70
2016,02,24,07,51,0.70
2016,02,24,07,52,0.70
2016,02,24,07,53,0.70
2016,02,24,07,54,0.70
2016,02,24,07,55,0.70
2016,02,24,07,56,0.70
2016,02,24,07,57,0.70
2016,02,24,07,58,0.70
2016,02,24,07,59,0.70
2016,02,24,08,00,0.70
2016,02,24,08,01,0.80
2016,02,24,08,02,0.70
2016,02,24,08,03,0.70
2016,02,24,08,04,0.70
2016,02,24,08,05,0.70
2016,02,24,08,06,0.70
2016,02,24,08,07,0.70
2016,02,24,08,08,0.70
2016,02,24,08,09,0.70
2016,02,24,08,10,0.80
2016,02,24,08,11,0.80
2016,02,24,08,12,0.80
2016,02,24,08,13,0.90
2016,02,24,08,14,0.90
2016,02,24,08,15,0.90
2016,02,24,08,16,0.90
2016,02,24,08,17,1.00
2016,02,24,08,18,1.00
2016,02,24,08,19,1.10
2016,02,24,08,20,1.10
2016,02,24,08,21,1.20
2016,02,24,08,22,1.20
2016,02,24,08,23,1.30
2016,02,24,08,24,1.30
2016,02,24,08,25,1.30
2016,02,24,08,26,1.30
2016,02,24,08,27,1.30
2016,02,24,08,28,1.30
2016,02,24,08,29,1.30
2016,02,24,08,30,1.30
2016,02,24,08,31,1.30
2016,02,24,08,32,1.30
2016,02,24,08,33,1.30
2016,02,24,08,34,1.40
2016,02,24,08,35,1.40
2016,02,24,08,36,1.50
2016,02,24,08,37,1.50
2016,02,24,08,38,1.50
2016,02,24,08,39,1.50
2016,02,24,08,40,1.50
2016,02,24,08,41,1.50
2016,02,24,08,42,1.50
2016,02,24,08,43,1.50
2016,02,24,08,44,1.60
2016,02,24,08,45,1.60
2016,02,24,08,46,1.60
2016,02,24,08,47,1.60
2016,02,24,08,48,1.50
2016,02,24,08,49,1.50
2016,02,24,08,50,1.50
2016,02,24,08,51,1.50
2016,02,24,08,52,1.50
2016,02,24,08,53,1.50
2016,02,24,08,54,1.60
2016,02,24,08,55,1.60
2016,02,24,08,56,1.60
2016,02,24,08,57,1.70
2016,02,24,08,58,1.70
2016,02,24,08,59,1.80
2016,02,24,09,00,1.80
2016,02,24,09,01,1.80
2016,02,24,09,02,1.80
2016,02,24,09,03,1.80
2016,02,24,09,04,1.90
2016,02,24,09,05,1.90
2016,02,24,09,06,2.00
2016,02,24,09,07,2.00
2016,02,24,09,08,2.00
2016,02,24,09,09,2.10
2016,02,24,09,10,2.10
2016,02,24,09,11,2.20
2016,02,24,09,12,2.20
2016,02,24,09,13,2.20
2016,02,24,09,14,2.30
2016,02,24,09,15,2.30
2016,02,24,09,16,2.40
2016,02,24,09,17,2.50
2016,02,24,09,18,2.50
2016,02,24,09,19,2.60
2016,02,24,09,20,2.70
2016,02,24,09,21,2.70
2016,02,24,09,22,2.80
2016,02,24,09,23,2.90
2016,02,24,09,24,2.90
2016,02,24,09,25,3.00
2016,02,24,09,26,3.10
2016,02,24,09,27,3.20
2016,02,24,09,28,3.20
2016,02,24,09,29,3.30
2016,02,24,09,30,3.30
2016,02,24,09,31,3.40
2016,02,24,09,32,3.40
2016,02,24,09,33,3.50
2016,02,24,09,34,3.50
2016,02,24,09,35,3.50
2016,02,24,09,36,3.50
2016,02,24,09,37,3.60
2016,02,24,09,38,3.60
2016,02,24,09,39,3.60
2016,02,24,09,40,3.60
2016,02,24,09,41,3.60
2016,02,24,09,42,3.60
2016,02,24,09,43,3.60
2016,02,24,09,44,3.60
2016,02,24,09,45,3.70
2016,02,24,09,46,3.70
2016,02,24,09,47,3.70
2016,02,24,09,48,3.70
2016,02,24,09,49,3.70
2016,02,24,09,50,3.70
2016,02,24,09,51,3.70
2016,02,24,09,52,3.70
2016,02,24,09,53,3.70
2016,02,24,09,54,3.70
2016,02,24,09,55,3.70
2016,02,24,09,56,3.70
2016,02,24,09,57,3.70
2016,02,24,09,58,3.70
2016,02,24,09,59,3.80
2016,02,24,10,00,3.80
2016,02,24,10,01,3.80
2016,02,24,10,02,3.80
2016,02,24,10,03,3.80
2016,02,24,10,04,3.80
2016,02,24,10,05,3.80
2016,02,24,10,06,3.90
2016,02,24,10,07,3.90
2016,02,24,10,08,4.00
2016,02,24,10,09,4.00
2016,02,24,10,10,4.10
2016,02,24,10,11,4.10
2016,02,24,10,12,4.10
2016,02,24,10,13,4.20
2016,02,24,10,14,4.20
2016,02,24,10,15,4.30
2016,02,24,10,16,4.30
2016,02,24,10,17,4.40
2016,02,24,10,18,4.40
2016,02,24,10,19,4.50
2016,02,24,10,20,4.50
2016,02,24,10,21,4.60
2016,02,24,10,22,4.60
2016,02,24,10,23,4.70
2016,02,24,10,24,4.70
2016,02,24,10,25,4.80
2016,02,24,10,26,4.90
2016,02,24,10,27,4.90
2016,02,24,10,28,5.00
2016,02,24,10,29,5.00
2016,02,24,10,30,5.10
2016,02,24,10,31,5.10
2016,02,24,10,32,5.10
2016,02,24,10,33,5.20
2016,02,24,10,34,5.20
2016,02,24,10,35,5.20
2016,02,24,10,36,5.30
2016,02,24,10,37,5.40
2016,02,24,10,38,5.40
2016,02,24,10,39,5.50
2016,02,24,10,40,5.50
2016,02,24,10,41,5.60
2016,02,24,10,42,5.70
2016,02,24,10,43,5.80
2016,02,24,10,44,5.80
2016,02,24,10,45,5.90
2016,02,24,10,46,6.00
2016,02,24,10,47,6.20
2016,02,24,10,48,6.20
2016,02,24,10,49,6.30
2016,02,24,10,50,6.40
2016,02,24,10,51,6.40
2016,02,24,10,52,6.50
2016,02,24,10,53,6.60
2016,02,24,10,54,6.60
2016,02,24,10,55,6.70
2016,02,24,10,56,6.80
2016,02,24,10,57,6.80
2016,02,24,10,58,6.90
2016,02,24,10,59,6.90
2016,02,24,11,00,6.90
2016,02,24,11,01,7.00
2016,02,24,11,02,7.00
2016,02,24,11,03,7.00
2016,02,24,11,04,7.10
2016,02,24,11,05,7.10
2016,02,24,11,06,7.10
2016,02,24,11,07,7.20
2016,02,24,11,08,7.20
2016,02,24,11,09,7.20
2016,02,24,11,10,7.30
2016,02,24,11,11,7.30
2016,02,24,11,12,7.30
2016,02,24,11,13,7.30
2016,02,24,11,14,7.40
2016,02,24,11,15,7.40
2016,02,24,11,16,7.40
2016,02,24,11,17,7.50
2016,02,24,11,18,7.50
2016,02,24,11,19,7.50
2016,02,24,11,20,7.60
2016,02,24,11,21,7.60
2016,02,24,11,22,7.50
2016,02,24,11,23,7.60
2016,02,24,11,24,7.60
2016,02,24,11,25,7.60
2016,02,24,11,26,7.50
2016,02,24,11,27,7.60
2016,02,24,11,28,7.60
2016,02,24,11,29,7.60
2016,02,24,11,30,7.60
2016,02,24,11,31,7.60
2016,02,24,11,32,7.60
2016,02,24,11,33,7.60
2016,02,24,11,34,7.60
2016,02,24,11,35,7.70
2016,02,24,11,36,7.70
2016,02,24,11,37,7.70
2016,02,24,11,38,7.70
2016,02,24,11,39,7.70
2016,02,24,11,40,7.70
2016,02,24,11,41,7.70
2016,02,24,11,42,7.70
2016,02,24,11,43,7.70
2016,02,24,11,44,7.80
2016,02,24,11,45,7.80
2016,02,24,11,46,7.80
2016,02,24,11,47,7.80
2016,02,24,11,48,7.80
2016,02,24,11,49,7.80
2016,02,24,11,50,7.90
2016,02,24,11,51,7.90
2016,02,24,11,52,8.00
2016,02,24,11,53,8.00
2016,02,24,11,54,8.10
2016,02,24,11,55,8.10
2016,02,24,11,56,8.20
2016,02,24,11,57,8.20
2016,02,24,11,58,8.20
2016,02,24,11,59,8.20
2016,02,24,12,00,8.20
2016,02,24,12,01,8.20
2016,02,24,12,02,8.20
2016,02,24,12,03,8.20
2016,02,24,12,04,8.20
2016,02,24,12,05,8.20
2016,02,24,12,06,8.20
2016,02,24,12,07,8.20
2016,02,24,12,08,8.20
2016,02,24,12,09,8.10
2016,02,24,12,10,8.10
2016,02,24,12,11,8.10
2016,02,24,12,12,8.20
2016,02,24,12,13,8.20
2016,02,24,12,14,8.20
2016,02,24,12,15,8.20
2016,02,24,12,16,8.20
2016,02,24,12,17,8.20
2016,02,24,12,18,8.20
2016,02,24,12,19,8.20
2016,02,24,12,20,8.10
2016,02,24,12,21,8.10
2016,02,24,12,22,8.10
2016,02,24,12,23,8.10
2016,02,24,12,24,8.10
2016,02,24,12,25,8.10
2016,02,24,12,26,8.10
2016,02,24,12,27,8.10
2016,02,24,12,28,8.10
2016,02,24,12,29,8.10
2016,02,24,12,30,8.10
2016,02,24,12,31,8.10
2016,02,24,12,32,8.20
2016,02,24,12,33,8.20
2016,02,24,12,34,8.20
2016,02,24,12,35,8.20
2016,02,24,12,36,8.30
2016,02,24,12,37,8.30
2016,02,24,12,38,8.30
2016,02,24,12,39,8.30
2016,02,24,12,40,8.30
2016,02,24,12,41,8.20
2016,02,24,12,42,8.20
2016,02,24,12,43,8.20
2016,02,24,12,44,8.20
2016,02,24,12,45,8.20
2016,02,24,12,46,8.20
2016,02,24,12,47,8.20
2016,02,24,12,48,8.20
2016,02,24,12,49,8.20
2016,02,24,12,50,8.20
2016,02,24,12,51,8.30
2016,02,24,12,52,8.30
2016,02,24,12,53,8.40
2016,02,24,12,54,8.40
2016,02,24,12,55,8.50
2016,02,24,12,56,8.50
2016,02,24,12,57,8.60
2016,02,24,12,58,8.60
2016,02,24,12,59,8.60
2016,02,24,13,00,8.60
2016,02,24,13,01,8.70
2016,02,24,13,02,8.70
2016,02,24,13,03,8.70
2016,02,24,13,04,8.70
2016,02,24,13,05,8.70
2016,02,24,13,06,8.60
2016,02,24,13,07,8.60
2016,02,24,13,08,8.50
2016,02,24,13,09,8.50
2016,02,24,13,10,8.50
2016,02,24,13,11,8.50
2016,02,24,13,12,8.50
2016,02,24,13,13,8.50
2016,02,24,13,14,8.50
2016,02,24,13,15,8.50
2016,02,24,13,16,8.60
2016,02,24,13,17,8.60
2016,02,24,13,18,8.60
2016,02,24,13,19,8.70
2016,02,24,13,20,8.70
2016,02,24,13,21,8.70
2016,02,24,13,22,8.80
2016,02,24,13,23,8.80
2016,02,24,13,24,8.90
2016,02,24,13,25,8.90
2016,02,24,13,26,8.90
2016,02,24,13,27,8.90
2016,02,24,13,28,9.00
2016,02,24,13,29,9.00
2016,02,24,13,30,9.10
2016,02,24,13,31,9.10
2016,02,24,13,32,9.10
2016,02,24,13,33,9.10
2016,02,24,13,34,9.20
2016,02,24,13,35,9.20
2016,02,24,13,36,9.20
2016,02,24,13,37,9.20
2016,02,24,13,38,9.30
2016,02,24,13,39,9.40
2016,02,24,13,40,9.40
2016,02,24,13,41,9.50
2016,02,24,13,42,9.50
2016,02,24,13,43,9.60
2016,02,24,13,44,9.60
2016,02,24,13,45,9.70
2016,02,24,13,46,9.80
2016,02,24,13,47,9.80
2016,02,24,13,48,9.80
2016,02,24,13,49,9.90
2016,02,24,13,50,9.90
2016,02,24,13,51,9.90
2016,02,24,13,52,10.00
2016,02,24,13,53,10.10
2016,02,24,13,54,10.10
2016,02,24,13,55,10.20
2016,02,24,13,56,10.30
2016,02,24,13,57,10.40
2016,02,24,13,58,10.50
2016,02,24,13,59,10.60
2016,02,24,14,00,10.60
2016,02,24,14,01,10.70
2016,02,24,14,02,10.70
2016,02,24,14,03,10.70
2016,02,24,14,04,10.80
2016,02,24,14,05,10.80
2016,02,24,14,06,10.90
2016,02,24,14,07,10.90
2016,02,24,14,08,11.00
2016,02,24,14,09,11.00
2016,02,24,14,10,11.00
2016,02,24,14,11,11.10
2016,02,24,14,12,11.10
2016,02,24,14,13,11.20
2016,02,24,14,14,11.20
2016,02,24,14,15,11.30
2016,02,24,14,16,11.30
2016,02,24,14,17,11.20
2016,02,24,14,18,11.20
2016,02,24,14,19,11.30
2016,02,24,14,20,11.30
2016,02,24,14,21,11.30
2016,02,24,14,22,11.40
2016,02,24,14,23,11.40
2016,02,24,14,24,11.50
2016,02,24,14,25,11.50
2016,02,24,14,26,11.60
2016,02,24,14,27,11.60
2016,02,24,14,28,11.70
2016,02,24,14,29,11.70
2016,02,24,14,30,11.60
2016,02,24,14,31,11.60
2016,02,24,14,32,11.50
2016,02,24,14,33,11.40
2016,02,24,14,34,11.20
2016,02,24,14,35,11.10
2016,02,24,14,36,11.10
2016,02,24,14,37,11.00
2016,02,24,14,38,11.00
2016,02,24,14,39,10.90
2016,02,24,14,40,10.90
2016,02,24,14,41,10.80
2016,02,24,14,42,10.70
2016,02,24,14,43,10.70
2016,02,24,14,44,10.70
2016,02,24,14,45,10.60
2016,02,24,14,46,10.60
2016,02,24,14,47,10.50
2016,02,24,14,48,10.50
2016,02,24,14,49,10.50
2016,02,24,14,50,10.50
2016,02,24,14,51,10.40
2016,02,24,14,52,10.40
2016,02,24,14,53,10.40
2016,02,24,14,54,10.40
2016,02,24,14,55,10.40
2016,02,24,14,56,10.40
2016,02,24,14,57,10.40
2016,02,24,14,58,10.50
2016,02,24,14,59,10.50
2016,02,24,15,00,10.60
2016,02,24,15,01,10.60
2016,02,24,15,02,10.50
2016,02,24,15,03,10.50
2016,02,24,15,04,10.50
2016,02,24,15,05,10.50
2016,02,24,15,06,10.50
2016,02,24,15,07,10.50
2016,02,24,15,08,10.50
2016,02,24,15,09,10.50
2016,02,24,15,10,10.50
2016,02,24,15,11,10.50
2016,02,24,15,12,10.60
2016,02,24,15,13,10.60
2016,02,24,15,14,10.70
2016,02,24,15,15,10.70
2016,02,24,15,16,10.70
2016,02,24,15,17,10.70
2016,02,24,15,18,10.80
2016,02,24,15,19,10.80
2016,02,24,15,20,10.80
2016,02,24,15,21,10.80
2016,02,24,15,22,10.80
2016,02,24,15,23,10.80
2016,02,24,15,24,10.80
2016,02,24,15,25,10.80
2016,02,24,15,26,10.80
2016,02,24,15,27,10.80
2016,02,24,15,28,10.90
2016,02,24,15,29,10.90
2016,02,24,15,30,11.00
2016,02,24,15,31,11.10
2016,02,24,15,32,11.10
2016,02,24,15,33,11.20
2016,02,24,15,34,11.20
2016,02,24,15,35,11.30
2016,02,24,15,36,11.30
2016,02,24,15,37,11.40
2016,02,24,15,38,11.50
2016,02,24,15,39,11.50
2016,02,24,15,40,11.60
2016,02,24,15,41,11.50
2016,02,24,15,42,11.50
2016,02,24,15,43,11.40
2016,02,24,15,44,11.30
2016,02,24,15,45,11.30
2016,02,24,15,46,11.30
2016,02,24,15,47,11.30
2016,02,24,15,48,11.30
2016,02,24,15,49,11.30
2016,02,24,15,50,11.30
2016,02,24,15,51,11.30
2016,02,24,15,52,11.20
2016,02,24,15,53,11.20
2016,02,24,15,54,11.20
2016,02,24,15,55,11.20
2016,02,24,15,56,11.20
2016,02,24,15,57,11.20
2016,02,24,15,58,11.20
2016,02,24,15,59,11.10
2016,02,24,16,00,11.00
2016,02,24,16,01,10.80
2016,02,24,16,02,10.70
2016,02,24,16,03,10.60
2016,02,24,16,04,10.40
2016,02,24,16,05,10.30
2016,02,24,16,06,10.30
2016,02,24,16,07,10.30
2016,02,24,16,08,10.20
2016,02,24,16,09,10.10
2016,02,24,16,10,10.10
2016,02,24,16,11,10.00
2016,02,24,16,12,9.90
2016,02,24,16,13,9.80
2016,02,24,16,14,9.80
2016,02,24,16,15,9.80
2016,02,24,16,16,9.70
2016,02,24,16,17,9.70
2016,02,24,16,18,9.60
2016,02,24,16,19,9.60
2016,02,24,16,20,9.60
2016,02,24,16,21,9.60
2016,02,24,16,22,9.60
2016,02,24,16,23,9.70
2016,02,24,16,24,9.70
2016,02,24,16,25,9.70
2016,02,24,16,26,9.70
2016,02,24,16,27,9.70
2016,02,24,16,28,9.70
2016,02,24,16,29,9.60
2016,02,24,16,30,9.60
2016,02,24,16,31,9.60
2016,02,24,16,32,9.60
2016,02,24,16,33,9.60
2016,02,24,16,34,9.60
2016,02,24,16,35,9.60
2016,02,24,16,36,9.60
2016,02,24,16,37,9.60
2016,02,24,16,38,9.60
2016,02,24,16,39,9.60
2016,02,24,16,40,9.60
2016,02,24,16,41,9.60
2016,02,24,16,42,9.60
2016,02,24,16,43,9.50
2016,02,24,16,44,9.50
2016,02,24,16,45,9.60
2016,02,24,16,46,9.50
2016,02,24,16,47,9.50
2016,02,24,16,48,9.50
2016,02,24,16,49,9.60
2016,02,24,16,50,9.60
2016,02,24,16,51,9.60
2016,02,24,16,52,9.60
2016,02,24,16,53,9.70
2016,02,24,16,54,9.70
2016,02,24,16,55,9.70
2016,02,24,16,56,9.60
2016,02,24,16,57,9.60
2016,02,24,16,58,9.60
2016,02,24,16,59,9.50
2016,02,24,17,00,9.50
2016,02,24,17,01,9.50
2016,02,24,17,02,9.50
2016,02,24,17,03,9.40
2016,02,24,17,04,9.40
2016,02,24,17,05,9.40
2016,02,24,17,06,9.40
2016,02,24,17,07,9.40
2016,02,24,17,08,9.40
2016,02,24,17,09,9.40
2016,02,24,17,10,9.50
2016,02,24,17,11,9.50
2016,02,24,17,12,9.50
2016,02,24,17,13,9.60
2016,02,24,17,14,9.60
2016,02,24,17,15,9.60
2016,02,24,17,16,9.70
2016,02,24,17,17,9.70
2016,02,24,17,18,9.80
2016,02,24,17,19,9.80
2016,02,24,17,20,9.80
2016,02,24,17,21,9.80
2016,02,24,17,22,9.80
2016,02,24,17,23,9.80
2016,02,24,17,24,9.80
2016,02,24,17,25,9.80
2016,02,24,17,26,9.70
2016,02,24,17,27,9.70
2016,02,24,17,28,9.60
2016,02,24,17,29,9.60
2016,02,24,17,30,9.50
2016,02,24,17,31,9.50
2016,02,24,17,32,9.40
2016,02,24,17,33,9.40
2016,02,24,17,34,9.30
2016,02,24,17,35,9.30
2016,02,24,17,36,9.30
2016,02,24,17,37,9.30
2016,02,24,17,38,9.20
2016,02,24,17,39,9.20
2016,02,24,17,40,9.10
2016,02,24,17,41,9.10
2016,02,24,17,42,9.10
2016,02,24,17,43,9.00
2016,02,24,17,44,9.00
2016,02,24,17,45,8.90
2016,02,24,17,46,8.90
2016,02,24,17,47,8.90
2016,02,24,17,48,8.80
2016,02,24,17,49,8.80
2016,02,24,17,50,8.70
2016,02,24,17,51,8.70
2016,02,24,17,52,8.60
2016,02,24,17,53,8.60
2016,02,24,17,54,8.60
2016,02,24,17,55,8.60
2016,02,24,17,56,8.60
2016,02,24,17,57,8.50
2016,02,24,17,58,8.50
2016,02,24,17,59,8.50
2016,02,24,18,00,8.50